Location: *
(60.1759°S, 155.0663°W)
Time: 03:46:30
(UTC+00:00)

H-2A R/B - Pass Details

Date: 17 September 2019
Orbit: 529 x 654 km, 98.3° (Epoch: 19 October)

Event Time Altitude Azimuth Distance (km) Brightness Sun altitude
Exits shadow 13:07:25 79° 267° (W) 639 2.4 -23.4°
Drops below altitude 10° 13:11:47 10° 199° (SSW) 2,040 5.5 -22.9°
Sets 13:14:03 0° 197° (SSW) 2,972 6.4 -22.7°
